Location: Absher
(46.5583°N, 107.9840°W)
Time: 18:26:12
(UTC+00:00)

CUBEBUG 2 - Visible Passes

Search period start: 28 March 2023 00:00
Search period end: 07 April 2023 00:00
Orbit: 581 x 685 km, 97.8° (Epoch: 27 March)

Date Brightness Start Highest point End Pass type
(mag) Time Alt. Az. Time Alt. Az. Time Alt. Az.
28 Mar ? 08:28:39 10° ENE 08:29:20 12° ENE 08:29:20 12° ENE visible
28 Mar ? 10:03:16 10° N 10:06:47 49° N 10:06:47 49° N visible
28 Mar ? 11:42:22 10° NW 11:43:29 11° NW 11:44:13 10° WNW visible
29 Mar ? 08:48:58 10° NE 08:50:59 18° ENE 08:50:59 18° ENE visible
29 Mar ? 10:24:42 10° N 10:28:26 42° NW 10:28:26 42° NW visible
30 Mar ? 09:09:47 10° NNE 09:12:38 28° ENE 09:12:38 28° ENE visible
30 Mar ? 10:46:17 10° N 10:50:04 29° WNW 10:50:04 29° WNW visible
31 Mar ? 09:30:49 10° NNE 09:34:15 42° NE 09:34:15 42° NE visible
31 Mar ? 11:08:02 10° NNW 11:11:24 20° WNW 11:11:41 20° WNW visible
01 Apr ? 09:52:00 10° NNE 09:55:51 60° NNE 09:55:51 60° NNE visible
01 Apr ? 11:30:12 10° NNW 11:32:23 13° WNW 11:33:18 13° WNW visible
02 Apr ? 08:38:07 10° NE 08:40:01 16° ENE 08:40:01 16° ENE visible
02 Apr ? 10:13:20 10° N 10:17:27 55° NW 10:17:27 55° NW visible
03 Apr ? 08:58:40 10° NE 09:01:36 25° ENE 09:01:36 25° ENE visible
03 Apr ? 10:34:47 10° N 10:39:02 37° WNW 10:39:02 37° WNW visible
04 Apr ? 09:19:33 10° NNE 09:23:10 38° ENE 09:23:10 38° ENE visible
04 Apr ? 10:56:24 10° N 11:00:07 24° WNW 11:00:37 24° WNW visible
05 Apr ? 09:40:38 10° NNE 09:44:44 62° ENE 09:44:44 62° ENE visible
05 Apr ? 11:18:15 10° NNW 11:21:05 16° WNW 11:22:10 15° WNW visible
06 Apr ? 08:27:20 10° ENE 08:28:50 13° ENE 08:28:50 13° ENE visible
06 Apr ? 10:01:50 10° N 10:06:16 72° NW 10:06:16 72° NW visible
06 Apr ? 11:41:01 10° NW 11:41:59 11° NW 11:42:56 10° WNW visible
